Location: RyutenAO
(34.8939°N, 134.0022°E)
Time: 20:53:36
(UTC+09:00)

Oscar 19 - Visible Passes

Search period start: 02 April 2023 00:00
Search period end: 12 April 2023 00:00
Orbit: 772 x 790 km, 98.8° (Epoch: 02 April)

Date Brightness Start Highest point End Pass type
(mag) Time Alt. Az. Time Alt. Az. Time Alt. Az.
02 Apr 13.0 03:04:43 10° NE 03:08:17 19° E 03:11:50 10° SE visible
02 Apr 11.0 04:42:49 10° N 04:47:41 43° WNW 04:52:27 10° SW visible
03 Apr 10.6 04:10:26 10° NNE 04:15:37 89° ESE 04:20:02 14° SSW visible
04 Apr 11.7 03:38:32 10° NNE 03:43:25 41° E 03:47:38 13° SSE visible
04 Apr 12.0 05:18:37 10° NNW 05:22:20 20° WNW 05:26:03 10° WSW visible
05 Apr 12.9 03:07:22 10° NE 03:11:05 20° E 03:14:46 10° SE visible
05 Apr 11.1 04:45:37 10° N 04:50:26 41° WNW 04:55:15 10° SW visible
06 Apr 10.6 04:13:12 10° NNE 04:18:23 87° WNW 04:23:21 11° SSW visible
07 Apr 11.6 03:41:16 10° NNE 03:46:12 44° E 03:50:56 11° S visible
08 Apr 12.9 03:10:01 10° NE 03:13:52 21° E 03:17:42 10° SE visible
08 Apr 11.2 04:48:25 10° N 04:53:12 39° WNW 04:57:58 10° SW visible
09 Apr 10.6 04:15:58 10° N 04:21:10 82° WNW 04:26:20 10° SSW visible
10 Apr 11.6 03:44:00 10° NNE 03:48:58 47° E 03:53:56 10° S visible
11 Apr 12.8 03:12:40 10° NE 03:16:39 22° E 03:20:37 10° SE visible
11 Apr 11.2 04:51:13 10° N 04:55:57 37° WNW 05:00:40 10° SW visible
